Regional Weather Roundup
Issued by NWS

Home | Current Version | Previous Version | Text Only | Print | Product List | Glossary Off
Versions: 1 2 3 4 5 6 7 8 9 10 11 12 13 14 15 16 17 18 19 20 21 22 23 24 25 26 27 28 29 30 31 32 33 34 35 36 37 38 39 40 41 42 43 44 45 46 47 48 49 50

000
ASUS43 KLOT 031006
RWRIL

ILLINOIS REGIONAL WEATHER ROUNDUP
NATIONAL WEATHER SERVICE CHICAGO/ROMEOVILLE IL
400 AM CST TUE MAR 03 2015

NOTE: "FAIR" INDICATES FEW OR NO CLOUDS BELOW 12,000 FEET WITH NO
SIGNIFICANT WEATHER AND/OR OBSTRUCTIONS TO VISIBILITY.

* THESE STATIONS ARE NOT UNDER NWS QUALITY CONTROL. THEY ALSO MAY NOT
  REPORT WEATHER SUCH AS PRECIPITATION OR FOG.

ILZ001-002-007-009-015-016-024-031100-
NORTHWEST ILLINOIS

CITY           SKY/WX    TMP DP  RH WIND       PRES   REMARKS
MOLINE         FRZ RAIN  28  24  85 SE13      29.95F FOG     WCI  17
STERLING*      CLOUDY    25  21  86 SE12      29.99F WCI  14
SAVANNA*       LGT SNOW  25  22  90 SE15      29.96F WCI  12
$$

ILZ003-004-008-010-011-017-018-031100-
NORTH CENTRAL ILLINOIS

CITY           SKY/WX    TMP DP  RH WIND       PRES   REMARKS
ROCKFORD       LGT SNOW  24  20  84 S14       30.04F VSB 3/4 WCI  12
FREEPORT*      LGT SNOW  23  20  90 SE14      30.01F VSB 3/4 WCI  11
ROCHELLE*      LGT SNOW  23  21  93 SE14      30.04S WCI  11
DE KALB*       LGT SNOW  23  19  85 SE20      30.05S WCI   8
PERU*          LGT SNOW  28  24  83 SE15      30.05F WCI  16
$$

ILZ005-006-012>014-019>023-031100-
NORTHEAST ILLINOIS

CITY           SKY/WX    TMP DP  RH WIND       PRES   REMARKS
CHICAGO-OHARE  CLOUDY    26  17  68 S10       30.05F WCI  16
CHICAGO-MIDWAY LGTSLEET  29  16  58 S8        30.08F WCI  21
AURORA         LGT SNOW  26  18  71 SE12      30.06F WCI  16
LANSING*       MIX PCPN  27  17  68 SE12      30.08F WCI  16
JOLIET*        RAIN      26  20  79 SE8       30.06F WCI  18
WAUKEGAN       CLOUDY    27  21  78 SE15      30.04F WCI  15
DUPAGE AIRPORT MIX PCPN  26  17  68 SE9       30.04F WCI  17
KANKAKEE*      MIX PCPN  27  23  83 SE10      30.07F WCI  18
WHEELING       CLOUDY    27  16  63 S9        30.08F WCI  18
MORRIS*        MIX PCPN  27  23  84 SE8       30.06F WCI  19
ROMEOVILLE*    LGT RAIN  26  19  76 SE12      30.05F WCI  15
NORTHERLY ISL    N/A     28  17  63 S7          N/A  WCI  21
$$

LMZ740>746-031100-
SOUTHERN LAKE MICHIGAN

STATION/POSITION SKY/WX   TEMP    WIND        PRES    VSBY  WAVE
                          AIR SEA DIR/SP/G                  HT/PER
                          (F)     (DEG/KT/KT) (MB)    (MI)  (FT/S)
WAUKEGAN HARBOR            28     150/ 43/ 71   N/A
HARRISON CRIB              28     160/ 15/ 19   N/A
BURNHAM HARBOR             27     180/  8/ 13   N/A
CALUMET HARBOR                                1017.4F
MICHIGAN CITY              27     130/ 11/ 14   N/A
$$

ILZ025>027-034>036-040-047-049-050-058-095>099-031100-
WEST-CENTRAL ILLINOIS

CITY           SKY/WX    TMP DP  RH WIND       PRES   REMARKS
QUINCY         CLOUDY    28  24  85 S10       29.96F FOG     WCI  19
GALESBURG*     MIX PCPN  27  24  91 SE7       29.98R WCI  19
MACOMB*        DRIZZLE   29  27  94 S8        29.99R WCI  21
JACKSONVILLE*  MIX PCPN  31  26  82 SE8       29.99F WCI  23
PITTSFIELD*    CLOUDY    29  26  85 SE7       29.98F WCI  22
$$

ILZ028>032-037-038-041>044-048-051>054-059>061-031100-
CENTRAL ILLINOIS

CITY           SKY/WX    TMP DP  RH WIND       PRES   REMARKS
PONTIAC        MIX PCPN  30  27  86 SE14      30.06F WCI  20
BLOOMINGTON    CLOUDY    28  25  89 S16       30.04R WCI  16
DECATUR        CLOUDY    29  22  75 SE7       30.05R WCI  22
PEORIA         CLOUDY    30  23  75 S10       30.01F WCI  21
LACON*         MIX PCPN  29  24  82 SE15      29.98F WCI  18
LINCOLN*       LGT RAIN  30  25  82 SE5       30.04F WCI  25
SPRINGFIELD    CLOUDY    29  23  78 E6        30.02F WCI  23
TAYLORVILLE    CLOUDY    30  21  69 SE9       30.01F WCI  22
$$

ILZ033-039-045-046-055>057-062-063-031100-
EAST-CENTRAL ILLINOIS

CITY           SKY/WX    TMP DP  RH WIND       PRES   REMARKS
CHAMPAIGN      CLOUDY    28  22  78 SE13      30.06F WCI  17
DANVILLE*      LGT RAIN  28  23  82 E9        30.04F WCI  19
RANTOUL*       CLOUDY    30  25  81 SE13      30.07F WCI  20
MATTOON        CLOUDY    30  19  63 S10       30.05F WCI  21
PARIS*         CLOUDY    29  22  75 E7        30.07F WCI  22
$$

ILZ079-100>102-031100-
SOUTHWEST ILLINOIS

CITY           SKY/WX    TMP DP  RH WIND       PRES   REMARKS
ALTON          CLOUDY    32  21  65 SE9       30.00F WCI  24
BELLEVILLE     CLOUDY    32  26  78 VRB5      30.01F WCI  27
CAHOKIA*       CLOUDY    33  25  72 SE7       30.01F WCI  27
SPARTA*        CLOUDY    32  25  76 SE7       30.02F WCI  25
$$

ILZ064>066-069>071-074>076-080>082-084>086-088>090-092>094-031100-
SOUTH-CENTRAL ILLINOIS

CITY           SKY/WX    TMP DP  RH WIND       PRES   REMARKS
CARBONDALE     CLOUDY    37  25  61 S7        30.05F WCI  32
CAIRO*         CLOUDY    37  28  70 CALM      30.09R
EFFINGHAM*     CLOUDY    32  19  59 E6        30.09R WCI  26
MARION         CLOUDY    37  27  65 S6        30.06S WCI  33
MT. VERNON     CLOUDY    34  23  64 SE5       30.07R WCI  30
CENTRALIA*     CLOUDY    33  23  68 SE7       30.04F WCI  26
SALEM*         CLOUDY    34  24  65 SE6       30.06S WCI  29
METROPOLIS*    CLOUDY    37  28  70 SE3       30.08S
$$

ILZ067-068-072-073-078-083-087-091-031100-
SOUTHEAST ILLINOIS

CITY           SKY/WX    TMP DP  RH WIND       PRES   REMARKS
LAWRENCEVILLE  CLOUDY    32  24  72 S8        30.09F WCI  25
FLORA*         CLOUDY    32  25  74 SE7       30.08R WCI  26
FAIRFIELD*     CLOUDY    34  25  70 SE6       30.06S WCI  29
HARRISBURG*    CLOUDY    34  28  79 CALM      30.08F
ROBINSON*      CLOUDY    31  23  71 SE7       30.09S WCI  24
CARMI*         CLOUDY    36  30  79 SE9       30.06F WCI  29
$$

ABBREVIATIONS USED IN REMARKS
   TC - TEMPERATURE IN CELSIUS
  WCI - WIND CHILL INDEX
   HX - HEAT INDEX
  VSB - VISIBILITY
$$



USA.gov is the U.S. government's official web portal to all federal, state and local government web resources and services.